Weather observations for the past three days for
Cincinnati/Northern Kentucky International Airport
Metric (Imperial)
Date Time (edt) Wind (kph) Vis. (km) Weather Sky Cond. Temperature (ºC) Relative Humidity Wind Chill (°C) Heat Index (°C) Pressure Precipitation (cm)
Air Dwpt 6 hour altimeter (cm) sea level (mb) 1 hr 3 hr 6 hr
Max. Min.
25 01:52 S 11 16.09 Overcast FEW028 SCT034 OVC060 20.6 18.9 25 20.6 90% 75.82 1009.8 0.08 0.08
25 00:52 S 11 16.09 Overcast SCT030 SCT095 OVC140 21.1 18.9 87% 75.87 1010.5
24 23:52 S 11 16.09 Mostly Cloudy BKN250 20.6 18.3 87% 75.84 1010.4
24 22:52 S 9 16.09 Partly Cloudy SCT250 21.7 18.3 81% 75.87 1010.5
24 21:52 SE 15 16.09 Mostly Cloudy FEW065 BKN160 23.3 17.2 69% 75.82 1010.0
24 20:52 SE 15 16.09 Mostly Cloudy SCT043 SCT070 BKN160 23.9 17.2 66% 25 75.82 1010.0
24 19:52 S 6 16.09 Light Rain FEW047 BKN060 BKN080 24.4 18.9 27.2 24.4 72% 25 75.84 1010.4
24 18:52 S 11 16.09 Mostly Cloudy FEW043 SCT055 BKN080 25.6 17.8 62% 27 75.87 1010.6
24 17:52 S 13 16.09 Mostly Cloudy FEW039 BKN043 BKN250 25.6 17.2 60% 27 75.84 1010.4
24 16:52 S 20 16.09 Mostly Cloudy BKN041 BKN048 BKN200 26.7 17.8 58% 28 75.84 1010.1
24 15:52 SW 19 16.09 Mostly Cloudy SCT042 BKN200 26.7 17.2 56% 27 75.9 1011.0
24 14:52 S 15 G 26 16.09 Mostly Cloudy SCT035 BKN200 25.6 17.8 62% 27 75.95 1011.7
24 13:52 S 17 G 30 16.09 Mostly Cloudy FEW045 BKN190 25.6 17.8 26.1 17.2 62% 27 76.02 1012.6
24 12:52 S 15 16.09 Mostly Cloudy SCT035 BKN200 25 17.8 64% 26 76.05 1012.9
24 11:52 SE 9 16.09 A Few Clouds FEW040 23.3 18.3 74% 76.02 1012.8
24 10:52 E 9 16.09 Partly Cloudy FEW015 SCT250 21.7 17.2 76% 76.05 1012.9
24 09:52 Calm 4.83 Mostly Cloudy BKN009 20 17.2 84% 76.1 1013.8
24 08:52 Calm 4.83 Overcast with Haze OVC005 17.8 5 43% 76.12 1014.0
24 07:52 Calm 3.22 Fog/Mist OVC003 17.2 16.1 17.2 15 93% 76.07 1013.3
24 06:52 Calm 16.09 Overcast OVC005 16.7 16.1 96% 76.02 1012.7
24 05:52 Calm 16.09 Mostly Cloudy BKN006 15 14.4 96% 76 1012.4
24 04:52 SW 7 16.09 A Few Clouds FEW030 16.1 15 93% 76 1012.5
24 03:52 Calm 16.09 Partly Cloudy FEW030 SCT250 16.7 15 90% 76.02 1012.6
24 02:52 SW 6 16.09 Partly Cloudy SCT250 16.7 15.6 93% 76.02 1012.8
24 01:52 SW 7 16.09 Mostly Cloudy BKN250 17.2 16.1 22.2 17.2 93% 76.02 1012.9 0.05
24 00:52 S 6 16.09 Mostly Cloudy BKN250 17.2 16.7 97% 76.05 1012.9
23 23:52 SW 9 16.09 Mostly Cloudy BKN085 17.8 15.6 87% 76.07 1013.4
23 22:52 S 13 16.09 Mostly Cloudy BKN100 18.3 16.7 90% 76.02 1012.7 0.05
23 21:52 S 28 G 41 16.09 Overcast SCT014 BKN026 OVC080 21.1 19.4 90% 76 1012.5
23 20:52 S 9 16.09 Overcast FEW032 BKN095 OVC110 21.1 18.9 87% 75.97 1012.1 0.05
23 19:52 S 7 16.09 Overcast BKN060 OVC095 22.2 18.3 25 22.2 79% 75.97 1012.1
23 18:52 SW 6 16.09 Overcast SCT025 BKN056 OVC110 23.3 18.3 74% 75.97 1012.0
23 17:52 S 9 16.09 Overcast BKN027 BKN060 OVC110 23.9 17.8 69% 25 75.97 1012.1
23 16:52 SW 7 16.09 Overcast FEW026 OVC100 23.3 17.8 71% 76 1012.5
23 15:52 S 9 16.09 Overcast OVC031 23.9 17.8 69% 25 76.02 1012.6
23 14:52 S 13 16.09 Mostly Cloudy BKN031 23.9 16.7 64% 25 76.05 1013.1
23 13:52 S 20 16.09 Mostly Cloudy BKN032 BKN250 23.3 16.1 23.9 18.3 64% 76.1 1013.6 0.03
23 12:52 SE 20 16.09 Partly Cloudy FEW027 SCT250 23.3 17.8 71% 76.1 1013.7
23 11:52 SE 11 16.09 Mostly Cloudy FEW020 SCT050 BKN150 21.7 18.3 81% 76.15 1014.5
23 10:52 E 11 14.48 Mostly Cloudy FEW012 SCT019 BKN050 21.7 14.4 63% 76.17 1014.9 0.03
23 09:52 Calm 11.27 Overcast SCT006 SCT019 OVC085 18.9 17.8 93% 76.23 1015.5
23 08:52 Calm 9.66 Fog/Mist FEW036 BKN095 OVC110 18.9 17.8 93% 76.23 1015.5 0.03
23 07:52 S 7 9.66 Fog/Mist FEW006 SCT090 OVC150 18.3 17.2 18.3 16.1 93% 76.17 1014.5
23 06:52 Calm 8.05 Fog/Mist SCT100 BKN140 BKN250 17.2 16.1 93% 76.12 1014.0
23 05:52 Calm 11.27 Mostly Cloudy BKN100 17.2 16.1 93% 76.12 1014.0
23 04:52 W 9 12.87 Partly Cloudy SCT009 17.8 16.1 90% 76.12 1013.7
23 03:52 W 11 12.87 Overcast OVC006 18.3 16.1 87% 76.1 1013.6
23 02:52 W 19 G 31 16.09 Overcast OVC006 18.3 17.2 93% 76.1 1013.5
23 01:52 SW 15 16.09 A Few Clouds FEW006 17.8 17.2 24.4 17.8 96% 76.07 1013.3 0.05
23 00:52 SW 20 16.09 A Few Clouds FEW008 18.3 17.2 93% 76.07 1013.4
22 23:52 SW 11 16.09 Fair CLR 18.9 17.8 93% 76.05 1013.1
22 22:52 SW 15 16.09 Overcast FEW021 FEW050 OVC085 19.4 18.3 93% 76.1 1013.5 0.05
22 21:52 W 9 16.09 Mostly Cloudy SCT110 BKN180 20 17.2 84% 76.02 1012.9 0.03
22 20:52 S 24 G 39 8.05 Thunderstorm Light Rain Fog/Mist SCT020 BKN040CB OVC110 22.2 20.6 91% 76 1012.3 0.03
22 19:52 S 20 16.09 Overcast FEW020 BKN160 OVC200 23.9 20.6 28.3 23.9 82% 24 75.9 1010.9
22 18:52 S 20 9.66 Mostly Cloudy with Haze FEW035 FEW045 BKN250 25.6 20.6 74% 27 75.79 1009.6
22 17:52 S 20 G 35 16.09 Mostly Cloudy BKN035 BKN250 26.7 20.6 69% 28 75.87 1010.5
22 16:52 SW 20 G 41 16.09 Mostly Cloudy BKN035 BKN044 BKN250 27.2 20 65% 29 75.82 1009.8
22 15:52 SW 19 G 37 16.09 Mostly Cloudy SCT037 BKN250 27.8 20 63% 29 75.82 1009.7
22 13:52 SW 24 G 35 16.09 Partly Cloudy SCT031 27.8 20.6 27.8 18.9 65% 30 75.92 1010.9 1.4
22 12:52 SW 19 16.09 Mostly Cloudy SCT025 BKN030 BKN039 26.1 20.6 72% 28 75.92 1011.2
22 11:52 SW 26 G 33 16.09 A Few Clouds FEW023 25 20 74% 26 75.95 1011.3
22 10:52 SW 15 G 33 16.09 Mostly Cloudy BKN036 23.3 17.8 71% 75.97 1011.7 1.4
22 09:52 S 20 16.09 Mostly Cloudy SCT042 BKN050 21.1 7.2 41% 75.95 1011.6 0.03
22 08:52 S 15 11.27 Thunderstorm Light Rain Fog/Mist SCT025CB BKN042 OVC049 18.9 18.3 96% 75.95 1011.7 1.37
22 07:52 SW 6 12.87 Overcast BKN060 BKN075 OVC110 19.4 15.6 22.8 19.4 79% 75.97 1011.8 0.18 0.18
22 06:52 S 13 16.09 Overcast SCT090 BKN120 OVC140 20 17.2 84% 75.9 1010.8
22 05:52 S 17 16.09 Light Rain BKN090 OVC120 21.7 16.1 71% 75.84 1010.0
22 04:52 S 15 16.09 Mostly Cloudy BKN230 21.7 15 66% 75.9 1010.5
22 03:52 S 13 16.09 Mostly Cloudy BKN250 22.2 16.1 68% 75.87 1010.3
22 02:52 S 15 16.09 Mostly Cloudy BKN300 22.2 16.7 71% 75.87 1010.3
Date Time (edt) Wind (kph) Vis. (km) Weather Sky Cond. Air Dwpt Max. Min. Relative Humidity Wind Chill (°C) Heat Index (°C) altimeter (cm) sea level (mb) 1 hr 3 hr 6 hr
6 hour
Temperature (ºC) Pressure Precipitation (cm)